Location: Carri�res
(48.9069°N, 2.1792°E)
Time: 10:31:44
(UTC+00:00)

deb Kosmos- 1898 - Pass Details

Date: 28 July 2021
Orbit: 731 x 754 km, 74.0° (Epoch: 18 September)

Event Time Altitude Azimuth Distance (km) Brightness Sun altitude
Exits shadow 01:49:11 11° 150° (SSE) 2,145 ? -17.7°
Maximum altitude 01:52:55 25° 99° (E) 1,488 ? -17.5°
Drops below altitude 10° 01:57:02 10° 46° (NE) 2,272 ? -17.1°
Sets 01:59:46 0° 33° (NNE) 3,206 ? -16.9°
